Regional Weather Roundup
Issued by NWS

Home | Current Version | Previous Version | Text Only | Print | Product List | Glossary On
Versions: 1 2 3 4 5 6 7 8 9 10 11 12 13 14 15 16 17 18 19 20 21 22 23 24 25 26 27 28 29 30 31 32 33 34 35 36 37 38 39 40 41 42 43 44 45 46 47 48 49 50
000
ASUS43 KFSD 260610
RWRSD

WEATHER ROUNDUP FOR SOUTH DAKOTA
NATIONAL WEATHER SERVICE SIOUX FALLS SD
100 AM CDT SUN OCT 26 2014

NOTE: "FAIR" INDICATES FEW OR NO CLOUDS BELOW 12,000 FEET WITH NO
SIGNIFICANT WEATHER AND/OR OBSTRUCTIONS TO VISIBILITY.


SDZ001>005-009-010-012>017-260700-
NORTHWEST AND NORTH CENTRAL SOUTH DAKOTA

CITY           SKY/WX    TMP DP  RH WIND       PRES   REMARKS
BUFFALO          N/A     52  31  44 SE15G23   29.67F
FAITH            N/A     50  31  48 SE23G31   29.80F
MOBRIDGE       CLEAR     52  34  50 SE16      29.86F
$$

SDZ012>016-024>037-041>051-057-063-072>074-260700-
SOUTHWEST AND SOUTH CENTRAL SOUTH DAKOTA

CITY           SKY/WX    TMP DP  RH WIND       PRES   REMARKS
RAPID CTY ARPT CLOUDY    47  37  68 SE9       29.81F
PIERRE         CLEAR     48  36  63 E10       29.89F
CUSTER         MOCLDY    51  33  50 W6        29.91F
ELLSWORTH AFB  CLOUDY    52  37  56 S16       29.78F
PHILIP         CLEAR     48  33  56 E10       29.85F
PINE RIDGE     CLEAR     59  44  57 S17       29.83F
SPEARFISH      FAIR      63  32  31 E7        29.75F
WINNER         FAIR      52  33  48 SE14      29.91F
$$

SDZ004>011-016>023-039-040-260700-
NORTHEAST SOUTH DAKOTA

CITY           SKY/WX    TMP DP  RH WIND       PRES   REMARKS
ABERDEEN       CLEAR     36  29  75 SE7       29.97F
WATERTOWN      CLEAR     41  30  65 S6        30.01F
SISSETON         N/A     35  27  72 S3        30.00F
$$

SDZ017-020-022-023-036>040-048>070-260700-
SOUTHEAST SOUTH DAKOTA

CITY           SKY/WX    TMP DP  RH WIND       PRES   REMARKS
SIOUX FALLS    CLEAR     41  33  73 NE7       30.02F
HURON          CLEAR     44  31  60 SE8       29.97F
CHAMBERLAIN    CLEAR     46  34  63 SE9       29.94F
MITCHELL       CLEAR     44  35  70 SE7       29.98F
YANKTON        CLEAR     46  34  61 NE6       29.99F
$$

ABBREVIATIONS USED IN REMARKS
   TC - TEMPERATURE IN CELSIUS
  WCI - WIND CHILL INDEX
   HX - HEAT INDEX
  VSB - VISIBILITY




USA.gov is the U.S. government's official web portal to all federal, state and local government web resources and services.